SCP
0 0 0 0 0 0 0 0 -0 0 -0 0 0 -0 -0 0 0 0 0 -0 -0 -0 -0 -0 -0 -0 -0 -0 -0 -0 -0 -0 -0 -0 -0 0 0 0
0 0 0 0 0 0 0 0 0 0 -0 -0 0 0 0 0 0 0 0 0 -0 0 -0 -0 -0 -0 -0 -0 -0 -0 -0 0 0 0 0 0 0 0
0 0 0 0 0 0 0 0 0 0 0 0 0 0 0 0 0 0 0 0 0 0 -0 -0 -0 -0 0 0 0 0 0 0 0 0 0 0 0 0
0 0 0 0 0 0 0 0 0 0 0 0 0 0 0 0 0 0 0 0 0 0 0 0 0 0 0 0 0 0 0 0 0 0 0 0 0 0
0 0 -0 0 0 0 0 0 0 0 0 0 0 0 0 0 0 0 0 0 0 0 0 0 0 0 0 0 0 0 0 0 0 0 0 0 0 0
0 0 0 0 0 0 0 0 0 0 0 0 0 0 0 0 0 0 0 0 0 0 0 0 0 0 0 0 0 0 0 0 0 0 0 0 0 0
0 0 0 0 0 0 0 0 0 0 0 0 0 0 0 0 0 0 0 0 0 0 0 0 0 0 0 -0 -0 0 0 0 0 0 0 0 0 0
0 0 0 0 0 0 0 0 0 0 0 0 0 0 0 0 0 0 0 0 0 0 0 0 0 0 0 -0 -0 -0 -0 -0 0 0 0 0 0 -0
0 0 0 0 0 0 0 0 0 0 0 0 0 0 0 0 0 0 0 0 0 0 0 0 0 0 0 -0 -0 -0 -0 -0 0 0 0 -0 -0 -0
0 0 0 1 0 0 0 0 0 0 0 0 0 0 0 0 0 0 0 0 0 0 0 0 0 0 0 0 0 -0 -0 -0 -0 0 0 -0 -0 -0
0 0 0 0 0 0 0 0 0 0 0 0 0 0 0 0 0 0 0 0 0 0 0 0 0 0 0 0 0 -0 -0 -0 -0 0 0 -0 -0 0
0 0 0 0 0 0 0 0 0 0 0 0 0 0 0 0 0 0 0 0 0 0 0 0 0 0 0 0 0 0 -0 -0 -0 -0 0 0 -0 0
0 0 0 0 0 0 0 0 0 0 0 0 0 0 0 0 0 0 0 0 0 0 0 0 0 0 0 0 0 0 0 0 -0 -0 -0 0 0 0
0 0 0 0 0 0 0 0 0 0 0 0 0 0 0 0 0 0 0 0 0 0 0 0 0 0 0 0 0 0 0 0 -0 -0 0 0 0 0
0 0 0 0 0 0 0 0 0 0 0 0 0 0 0 0 0 0 0 0 0 0 0 0 0 0 0 0 0 0 0 0 0 0 0 0 0 0
0 0 0 0 0 0 0 0 0 0 0 0 0 0 0 0 0 0 0 0 0 0 0 0 0 0 0 0 0 0 0 0 0 0 0 0 0 0
0 0 0 0 0 0 0 0 0 0 0 0 0 0 0 0 0 0 0 0 0 0 0 0 0 0 0 0 0 0 0 0 0 0 0 0 0 0
0 0 0 0 0 0 0 0 0 0 0 0 0 0 0 0 0 0 0 0 0 0 0 0 0 0 0 0 0 0 0 0 0 0 0 0 0 0
0 0 0 0 0 0 0 0 0 0 0 0 0 0 0 0 0 0 0 0 0 0 0 0 0 0 0 0 0 0 0 0 0 0 0 0 0 0
0 0 0 0 0 0 0 0 0 0 0 0 0 0 0 0 0 0 0 0 0 0 0 0 0 0 0 0 0 0 0 0 0 0 0 0 0 0
0 0 0 0 0 0 0 0 0 0 0 0 0 0 0 0 0 0 0 0 0 0 0 0 0 0 0 0 0 0 0 0 0 0 0 0 0 0
0 0 0 0 0 0 0 0 0 0 0 0 0 0 0 0 0 0 0 0 0 0 0 0 0 0 0 0 0 0 0 0 0 0 0 0 0 0
0 0 0 0 0 0 0 0 0 0 0 0 0 0 0 0 0 0 0 0 0 0 0 0 0 0 0 0 0 0 0 0 0 0 0 0 0 0
Wind_Speed_500mb
12 20 19 25 14 13 10 10 18 10 11 16 2 9 13 3 14 22 26 24 20 21 19 20 22 23 24 25 26 26 26 25 24 24 22 21 23 26
18 25 23 24 25 23 14 9 11 8 8 15 4 11 8 5 13 22 26 17 15 22 17 22 24 22 22 24 25 25 26 25 25 25 24 22 21 23
32 29 34 29 20 19 22 25 15 9 7 3 2 5 6 10 14 17 18 12 15 24 18 22 30 20 23 25 25 25 25 25 26 26 25 26 27 25
31 24 19 21 22 28 23 16 14 17 17 18 10 13 15 14 14 17 13 12 16 19 19 22 30 29 25 24 23 23 24 25 24 24 23 23 22 20
37 29 25 22 23 28 28 30 33 29 25 20 16 18 15 20 25 27 22 20 18 15 16 17 24 26 33 27 26 25 22 20 20 21 23 24 23 21
36 36 34 27 27 30 34 35 36 36 37 40 40 30 29 30 35 42 45 29 20 21 17 13 18 21 31 33 30 26 25 23 22 23 23 23 24 23
28 30 34 33 35 35 37 40 41 34 32 32 31 30 32 38 37 27 25 21 25 25 18 14 16 16 19 29 34 28 25 23 22 22 23 23 24 24
24 26 32 38 40 40 37 41 42 44 43 39 37 33 30 34 33 28 25 30 34 32 22 20 20 16 17 25 33 30 25 23 22 22 23 24 25 27
32 31 31 32 33 36 41 43 43 42 44 43 42 37 34 35 28 27 30 31 32 32 27 25 26 18 12 18 26 26 31 27 24 23 22 22 23 27
39 40 42 38 35 34 34 40 39 38 35 40 42 42 42 41 36 35 29 30 33 44 29 31 25 20 13 8 14 19 27 30 30 28 21 17 17 21
40 46 46 44 42 42 40 40 41 40 39 33 32 32 35 41 36 34 34 35 37 36 27 24 22 16 14 11 6 12 19 23 29 29 26 20 14 18
41 42 46 43 39 40 41 43 42 40 39 35 32 32 32 32 31 35 33 40 42 33 28 22 25 20 13 13 8 7 13 19 26 28 25 20 22 21
40 45 46 43 44 36 34 33 40 43 42 42 36 32 29 28 31 39 41 35 34 24 25 22 21 23 20 18 14 4 6 16 24 26 27 12 15 21
39 38 39 40 41 38 35 31 40 37 29 28 22 16 14 13 14 15 12 11 8 8 8 11 20 22 28 19 18 9 2 16 22 24 22 9 11 16
33 38 44 41 33 12 7 13 12 10 10 13 16 15 13 13 13 15 16 10 2 5 3 12 13 18 26 27 26 16 9 19 24 22 9 6 11 10
8 10 2 9 6 8 12 14 13 11 9 13 16 15 14 12 10 5 16 18 13 9 5 2 8 11 13 15 16 15 11 12 21 24 13 7 10 9
5 7 11 15 18 19 18 17 16 14 13 11 10 10 8 6 6 4 10 13 10 11 14 5 5 7 6 3 5 9 8 14 18 21 10 9 3 7
8 9 11 11 11 9 11 11 10 8 9 9 9 7 4 5 11 13 10 8 14 8 4 3 5 10 12 12 11 11 9 9 11 11 14 8 19 14
8 9 7 5 4 4 6 8 8 9 8 8 11 14 14 12 10 12 18 23 16 9 7 5 5 8 7 7 9 9 11 14 20 14 7 9 13 9
3 2 4 5 4 4 6 7 8 9 10 11 10 7 9 13 13 15 18 14 16 10 12 9 8 10 4 11 12 9 10 14 19 15 10 9 10 12
11 5 5 3 5 6 7 8 8 8 9 10 14 15 13 11 19 15 16 18 17 16 14 16 18 17 7 4 5 7 12 10 12 15 19 24 29 28
11 8 7 0 4 4 5 7 8 8 10 12 12 11 17 19 17 18 19 22 25 25 21 19 12 2 8 10 8 10 13 12 19 17 17 28 23 29
2 7 11 9 7 4 3 3 5 3 7 14 15 15 15 23 20 22 21 16 20 20 18 7 7 5 7 7 10 13 16 21 27 23 18 12 23 31
Wind_Direction_500mb
270 275 262 236 269 285 267 263 310 312 333 324 346 219 209 231 345 347 345 350 4 10 19 29 28 26 23 22 21 18 19 24 31 38 43 43 46 51
256 256 268 260 254 270 268 309 350 302 307 27 57 189 246 274 313 336 344 349 13 13 25 27 18 14 13 12 15 16 18 24 31 36 40 37 49 49
250 259 261 263 277 282 292 283 294 326 340 303 20 241 292 270 313 326 332 327 353 9 19 17 9 5 9 10 14 17 20 23 27 32 34 36 39 42
249 247 258 267 267 278 280 273 281 286 280 276 287 257 269 283 285 296 323 305 329 353 358 6 19 25 14 10 11 15 17 20 22 26 30 31 32 34
255 257 256 265 269 275 279 274 272 274 275 283 279 263 290 279 281 286 297 292 292 316 336 349 12 15 18 11 9 11 14 18 20 22 26 29 31 31
252 252 257 257 259 270 280 278 278 274 271 272 272 266 269 265 270 273 268 253 258 282 299 323 345 359 6 10 4 4 8 15 20 23 24 23 25 27
256 251 254 257 260 258 266 275 279 276 282 272 268 272 272 270 274 270 255 259 254 259 279 288 309 319 341 355 357 356 1 10 17 21 19 17 18 19
261 258 257 264 265 263 271 270 275 273 275 273 268 271 270 267 263 265 255 240 235 241 247 263 274 280 321 345 347 352 358 0 2 8 12 13 14 16
262 261 259 258 263 266 264 266 268 273 271 268 271 265 261 265 273 267 254 246 247 234 212 233 257 246 288 333 343 354 0 359 6 13 16 17 16 12
266 268 268 265 262 267 272 274 272 267 273 274 270 265 263 261 261 260 260 245 232 219 205 225 224 229 250 304 332 348 357 1 4 7 14 27 19 7
262 262 262 263 268 273 274 274 276 270 273 267 268 265 263 259 254 251 241 221 202 198 202 188 198 243 265 276 285 331 342 351 1 3 16 29 18 9
265 265 263 264 264 266 268 272 263 266 265 268 269 261 254 248 238 222 215 203 198 191 192 194 186 208 232 233 218 317 341 347 357 3 5 21 33 22
260 260 260 264 272 276 274 274 262 258 263 268 257 249 241 228 217 201 194 185 183 172 183 201 209 209 242 211 205 242 322 332 344 354 349 349 21 14
260 256 263 263 268 264 269 263 251 249 252 254 250 246 236 228 234 250 259 256 242 255 250 261 264 257 217 196 173 174 252 328 333 343 346 335 349 359
271 267 264 255 246 206 206 217 245 243 241 243 231 226 242 251 262 281 283 275 318 12 357 252 241 225 199 187 179 178 249 293 306 334 341 294 313 334
288 279 265 174 234 204 240 233 227 231 228 233 238 245 250 247 238 188 102 97 130 108 48 90 164 194 202 203 231 247 280 276 303 323 338 252 296 333
205 223 253 237 233 228 223 210 213 239 239 223 214 207 183 125 116 231 210 172 188 177 161 135 127 159 210 249 255 267 283 318 324 318 324 158 124 337
212 215 216 220 219 202 193 189 181 179 163 167 167 159 154 146 149 132 133 195 186 176 253 191 199 172 189 219 254 279 307 330 353 323 300 264 229 272
228 205 206 206 169 157 161 158 175 186 190 176 165 148 137 144 149 146 156 178 185 220 274 300 316 284 261 198 215 256 318 338 352 348 332 334 320 280
89 115 161 173 200 207 190 187 174 169 170 172 167 202 210 186 195 204 195 181 181 209 249 282 333 347 269 245 253 276 299 320 347 341 342 353 356 4
82 96 118 142 148 172 184 192 204 207 210 204 213 228 227 212 209 211 206 213 217 218 243 278 310 324 313 265 212 13 353 15 0 342 331 318 317 305
66 41 48 196 199 202 207 212 216 212 211 207 193 192 196 201 212 232 239 242 236 248 252 261 287 90 89 75 69 24 15 334 342 336 317 315 307 300
166 307 338 350 4 334 319 245 209 199 197 196 203 220 225 217 212 235 260 247 252 246 250 215 169 104 84 17 343 338 333 327 326 305 309 280 325 323
Wind_Speed_850mb
12 20 19 25 14 13 10 10 18 10 11 16 2 9 13 3 14 22 26 24 20 21 19 20 22 23 24 25 26 26 26 25 24 24 22 21 23 26
18 25 23 24 25 23 14 9 11 8 8 15 4 11 8 5 13 22 26 17 15 22 17 22 24 22 22 24 25 25 26 25 25 25 24 22 21 23
32 29 34 29 20 19 22 25 15 9 7 3 2 5 6 10 14 17 18 12 15 24 18 22 30 20 23 25 25 25 25 25 26 26 25 26 27 25
31 24 19 21 22 28 23 16 14 17 17 18 10 13 15 14 14 17 13 12 16 19 19 22 30 29 25 24 23 23 24 25 24 24 23 23 22 20
37 29 25 22 23 28 28 30 33 29 25 20 16 18 15 20 25 27 22 20 18 15 16 17 24 26 33 27 26 25 22 20 20 21 23 24 23 21
36 36 34 27 27 30 34 35 36 36 37 40 40 30 29 30 35 42 45 29 20 21 17 13 18 21 31 33 30 26 25 23 22 23 23 23 24 23
28 30 34 33 35 35 37 40 41 34 32 32 31 30 32 38 37 27 25 21 25 25 18 14 16 16 19 29 34 28 25 23 22 22 23 23 24 24
24 26 32 38 40 40 37 41 42 44 43 39 37 33 30 34 33 28 25 30 34 32 22 20 20 16 17 25 33 30 25 23 22 22 23 24 25 27
32 31 31 32 33 36 41 43 43 42 44 43 42 37 34 35 28 27 30 31 32 32 27 25 26 18 12 18 26 26 31 27 24 23 22 22 23 27
39 40 42 38 35 34 34 40 39 38 35 40 42 42 42 41 36 35 29 30 33 44 29 31 25 20 13 8 14 19 27 30 30 28 21 17 17 21
40 46 46 44 42 42 40 40 41 40 39 33 32 32 35 41 36 34 34 35 37 36 27 24 22 16 14 11 6 12 19 23 29 29 26 20 14 18
41 42 46 43 39 40 41 43 42 40 39 35 32 32 32 32 31 35 33 40 42 33 28 22 25 20 13 13 8 7 13 19 26 28 25 20 22 21
40 45 46 43 44 36 34 33 40 43 42 42 36 32 29 28 31 39 41 35 34 24 25 22 21 23 20 18 14 4 6 16 24 26 27 12 15 21
39 38 39 40 41 38 35 31 40 37 29 28 22 16 14 13 14 15 12 11 8 8 8 11 20 22 28 19 18 9 2 16 22 24 22 9 11 16
33 38 44 41 33 12 7 13 12 10 10 13 16 15 13 13 13 15 16 10 2 5 3 12 13 18 26 27 26 16 9 19 24 22 9 6 11 10
8 10 2 9 6 8 12 14 13 11 9 13 16 15 14 12 10 5 16 18 13 9 5 2 8 11 13 15 16 15 11 12 21 24 13 7 10 9
5 7 11 15 18 19 18 17 16 14 13 11 10 10 8 6 6 4 10 13 10 11 14 5 5 7 6 3 5 9 8 14 18 21 10 9 3 7
8 9 11 11 11 9 11 11 10 8 9 9 9 7 4 5 11 13 10 8 14 8 4 3 5 10 12 12 11 11 9 9 11 11 14 8 19 14
8 9 7 5 4 4 6 8 8 9 8 8 11 14 14 12 10 12 18 23 16 9 7 5 5 8 7 7 9 9 11 14 20 14 7 9 13 9
3 2 4 5 4 4 6 7 8 9 10 11 10 7 9 13 13 15 18 14 16 10 12 9 8 10 4 11 12 9 10 14 19 15 10 9 10 12
11 5 5 3 5 6 7 8 8 8 9 10 14 15 13 11 19 15 16 18 17 16 14 16 18 17 7 4 5 7 12 10 12 15 19 24 29 28
11 8 7 0 4 4 5 7 8 8 10 12 12 11 17 19 17 18 19 22 25 25 21 19 12 2 8 10 8 10 13 12 19 17 17 28 23 29
2 7 11 9 7 4 3 3 5 3 7 14 15 15 15 23 20 22 21 16 20 20 18 7 7 5 7 7 10 13 16 21 27 23 18 12 23 31
Wind_Direction_850mb
270 275 262 236 269 285 267 263 310 312 333 324 346 219 209 231 345 347 345 350 4 10 19 29 28 26 23 22 21 18 19 24 31 38 43 43 46 51
256 256 268 260 254 270 268 309 350 302 307 27 57 189 246 274 313 336 344 349 13 13 25 27 18 14 13 12 15 16 18 24 31 36 40 37 49 49
250 259 261 263 277 282 292 283 294 326 340 303 20 241 292 270 313 326 332 327 353 9 19 17 9 5 9 10 14 17 20 23 27 32 34 36 39 42
249 247 258 267 267 278 280 273 281 286 280 276 287 257 269 283 285 296 323 305 329 353 358 6 19 25 14 10 11 15 17 20 22 26 30 31 32 34
255 257 256 265 269 275 279 274 272 274 275 283 279 263 290 279 281 286 297 292 292 316 336 349 12 15 18 11 9 11 14 18 20 22 26 29 31 31
252 252 257 257 259 270 280 278 278 274 271 272 272 266 269 265 270 273 268 253 258 282 299 323 345 359 6 10 4 4 8 15 20 23 24 23 25 27
256 251 254 257 260 258 266 275 279 276 282 272 268 272 272 270 274 270 255 259 254 259 279 288 309 319 341 355 357 356 1 10 17 21 19 17 18 19
261 258 257 264 265 263 271 270 275 273 275 273 268 271 270 267 263 265 255 240 235 241 247 263 274 280 321 345 347 352 358 0 2 8 12 13 14 16
262 261 259 258 263 266 264 266 268 273 271 268 271 265 261 265 273 267 254 246 247 234 212 233 257 246 288 333 343 354 0 359 6 13 16 17 16 12
266 268 268 265 262 267 272 274 272 267 273 274 270 265 263 261 261 260 260 245 232 219 205 225 224 229 250 304 332 348 357 1 4 7 14 27 19 7
262 262 262 263 268 273 274 274 276 270 273 267 268 265 263 259 254 251 241 221 202 198 202 188 198 243 265 276 285 331 342 351 1 3 16 29 18 9
265 265 263 264 264 266 268 272 263 266 265 268 269 261 254 248 238 222 215 203 198 191 192 194 186 208 232 233 218 317 341 347 357 3 5 21 33 22
260 260 260 264 272 276 274 274 262 258 263 268 257 249 241 228 217 201 194 185 183 172 183 201 209 209 242 211 205 242 322 332 344 354 349 349 21 14
260 256 263 263 268 264 269 263 251 249 252 254 250 246 236 228 234 250 259 256 242 255 250 261 264 257 217 196 173 174 252 328 333 343 346 335 349 359
271 267 264 255 246 206 206 217 245 243 241 243 231 226 242 251 262 281 283 275 318 12 357 252 241 225 199 187 179 178 249 293 306 334 341 294 313 334
288 279 265 174 234 204 240 233 227 231 228 233 238 245 250 247 238 188 102 97 130 108 48 90 164 194 202 203 231 247 280 276 303 323 338 252 296 333
205 223 253 237 233 228 223 210 213 239 239 223 214 207 183 125 116 231 210 172 188 177 161 135 127 159 210 249 255 267 283 318 324 318 324 158 124 337
212 215 216 220 219 202 193 189 181 179 163 167 167 159 154 146 149 132 133 195 186 176 253 191 199 172 189 219 254 279 307 330 353 323 300 264 229 272
228 205 206 206 169 157 161 158 175 186 190 176 165 148 137 144 149 146 156 178 185 220 274 300 316 284 261 198 215 256 318 338 352 348 332 334 320 280
89 115 161 173 200 207 190 187 174 169 170 172 167 202 210 186 195 204 195 181 181 209 249 282 333 347 269 245 253 276 299 320 347 341 342 353 356 4
82 96 118 142 148 172 184 192 204 207 210 204 213 228 227 212 209 211 206 213 217 218 243 278 310 324 313 265 212 13 353 15 0 342 331 318 317 305
66 41 48 196 199 202 207 212 216 212 211 207 193 192 196 201 212 232 239 242 236 248 252 261 287 90 89 75 69 24 15 334 342 336 317 315 307 300
166 307 338 350 4 334 319 245 209 199 197 196 203 220 225 217 212 235 260 247 252 246 250 215 169 104 84 17 343 338 333 327 326 305 309 280 325 323